Notices

What's New in latest Release from April 7th, 2021:

- Updated Glossary, including Speed of Maximum Gust, and Total Hourly Precipitation

- Updated national and regional climate services offices contacts and prices information

- Addition of station inventory lists for 1981-2010, 1971-2000, and 1961-1990 Normals.

If you haven't already, please take our survey and provide feedback about our website: https://eccc.sondage-survey.ca/f/LanguageSelection.aspx?s=442ca660-fcf1-47c0-95a9-59707d6fd709

Hourly Data Report for January 21, 2021

SHEARWATER RCS
NOVA SCOTIA
Current Station Operator: ECCC - MSC

44°37'47.000" N
63°30'48.000" W
24.00 m
8205092
71264
AAW

Download Data

Hourly Data (January 2021)
Hourly Data Report for January 21, 2021
TIME
LST
Temp Definition
°C
Dew Point Definition
°C
Rel Hum Definition
%
Precip. Amount Definition
mm

Wind Dir Definition
10's deg

Wind Spd Definition
km/h
Visibility Definition
km
Stn Press Definition
kPa
Hmdx Definition


Wind Chill Definition


Weather Definition


00:00 -5.5 -10.2 69 0.0 34 11   100.36   -10 LegendNANA
01:00 -6.1 -10.7 70 0.0 33 14   100.28   -12 LegendNANA
02:00 -7.0 -12.5 65 0.0 32 9   100.31   -11 LegendNANA
03:00 -7.9 -13.8 63 0.0 32 10   100.36   -13 LegendNANA
04:00 -8.5 -14.5 62 0.0 33 10   100.38   -13 LegendNANA
05:00 -9.3 -14.2 67 0.0 32 6   100.41   -13 LegendNANA
06:00 -9.2 -14.8 64 0.0 31 9   100.46   -14 LegendNANA
07:00 -9.4 -14.6 66 0.0 31 7   100.53   -13 LegendNANA
08:00 -8.7 -13.1 71 0.0 27 8   100.56   -13 LegendNANA
09:00 -7.5 -13.1 64 0.0 30 10   100.58   -12 LegendNANA
10:00 -6.1 -12.3 62 0.0 32 11   100.57   -11 LegendNANA
11:00 -4.4 -12.4 54 0.0 31 9   100.51   -8 LegendNANA
12:00 -3.8 -13.0 49 0.0 30 7   100.42   -7 LegendNANA
13:00 -2.7 -12.4 48 0.0 26 6   100.35   -5 LegendNANA
14:00 -1.8 -12.4 44 0.0 23 11   100.27   -6 LegendNANA
15:00 -2.4 -12.6 46 0.0 26 9   100.32   -6 LegendNANA
16:00 -2.7 -13.4 43 0.0 23 12   100.33   -7 LegendNANA
17:00 -3.0 -13.0 46 0.0 24 12   100.35   -7 LegendNANA
18:00 -3.2 -12.4 49 0.0 24 12   100.35   -8 LegendNANA
19:00 -3.5 -12.7 49 0.0 27 9   100.39   -7 LegendNANA
20:00 -4.0 -12.8 51 0.0 30 8   100.42   -7 LegendNANA
21:00 -5.0 -12.4 56 0.0 33 6   100.44   -8 LegendNANA
22:00 -6.6 -12.4 64 0.0 4 8   100.43   -10 LegendNANA
23:00 -6.8 -12.3 65 0.0 5 10   100.43   -11 LegendNANA

Notes on Data Quality.

Legend

  • E = Estimated
  • M = Missing
  • NA = Not Available*
  • [empty] = Indicates an unobserved value
Date modified: